Date String (YYYY-MM-DD hh:mm:ss) UTC,Instrument flags,Ambient pressure (hPa),Sample flow (lpm),Bypass flow (lpm),Sample temperature (°C),Ambient temperature (°C),ASC tube jacket temperature (°C),LED temperature (°C),Box temperature (°C),Sample RH (%),Span deviation,Mass concentration (μg/m³),Mass concentration (μg/m³),Mass concentration (μg/m³)
DateTimeUTC,F1_M11,P_M11,Q1_M11,Q2_M11,T1_M11,T2_M11,T3_M11,T4_M11,T5_M11,U1_M11,ZSPAN_M11,X0_M11,X2_M11,X1_M11
2021-11-27 06:00:00,,0826.1,5.00,0.00,29.1,28.2,00.0,38.1,30.8,05.6,0000.0,0004.39,0001.44,0000.80
2021-11-27 06:01:00,,0826.1,5.00,0.00,29.1,28.2,00.0,38.1,30.8,05.7,0000.0,0004.52,0001.44,0000.80
2021-11-27 06:02:00,,0826.0,5.01,0.00,29.1,28.2,00.0,38.1,30.8,05.7,0000.0,0004.58,0001.45,0000.81
2021-11-27 06:03:00,,0826.0,4.99,0.00,29.1,28.2,00.0,38.1,30.8,05.7,0000.0,0005.06,0001.48,0000.80
2021-11-27 06:04:00,,0825.9,5.00,0.00,29.0,28.2,00.0,38.1,30.8,05.7,0000.0,0005.83,0001.46,0000.80
2021-11-27 06:05:00,,0825.9,5.00,0.00,29.0,28.2,00.0,38.1,30.7,05.7,0000.0,0005.75,0001.47,0000.80
2021-11-27 06:06:00,,0826.0,5.01,0.00,29.0,28.2,00.0,38.1,30.7,05.7,0000.0,0005.86,0001.47,0000.80
2021-11-27 06:07:00,,0826.0,4.99,0.00,29.0,28.1,00.0,38.1,30.6,05.8,0000.0,0005.73,0001.43,0000.79
2021-11-27 06:08:00,,0826.2,5.00,0.00,29.0,28.1,00.0,38.1,30.6,05.9,0000.0,0004.40,0001.41,0000.79
2021-11-27 06:09:00,,0826.2,5.00,0.00,28.9,28.1,00.0,38.1,30.6,05.9,0000.0,0004.31,0001.42,0000.78
2021-11-27 06:10:00,,0826.2,4.99,0.00,29.0,28.1,00.0,38.1,30.7,05.9,0000.0,0004.33,0001.41,0000.78
2021-11-27 06:11:00,,0826.2,5.01,0.00,29.0,28.1,00.0,38.0,30.7,05.8,0000.0,0004.26,0001.40,0000.78
2021-11-27 06:12:00,,0826.1,5.01,0.00,29.0,28.1,00.0,38.0,30.7,05.7,0000.0,0004.10,0001.40,0000.78
2021-11-27 06:13:00,,0826.1,4.99,0.00,29.0,28.1,00.0,38.0,30.7,05.7,0000.0,0003.94,0001.38,0000.78
2021-11-27 06:14:00,,0826.0,5.00,0.00,29.0,28.2,00.0,38.0,30.7,05.7,0000.0,0003.84,0001.39,0000.78
2021-11-27 06:15:00,,0826.0,5.01,0.00,29.0,28.2,00.0,38.0,30.7,05.7,0000.0,0002.62,0001.38,0000.79
2021-11-27 06:16:00,,0826.1,5.00,0.00,29.0,28.2,00.0,38.0,30.7,05.7,0000.0,0002.57,0001.36,0000.79
2021-11-27 06:17:00,,0826.1,5.00,0.00,29.0,28.1,00.0,38.0,30.7,05.8,0000.0,0002.60,0001.37,0000.80
2021-11-27 06:18:00,,0826.2,5.00,0.00,29.0,28.1,00.0,38.0,30.7,05.8,0000.0,0002.83,0001.39,0000.81
2021-11-27 06:19:00,,0826.2,5.01,0.00,29.0,28.1,00.0,38.0,30.7,05.8,0000.0,0003.43,0001.39,0000.83
2021-11-27 06:20:00,,0826.2,4.99,0.00,29.0,28.2,00.0,38.0,30.8,05.8,0000.0,0003.20,0001.34,0000.83
2021-11-27 06:21:00,,0826.2,5.02,0.00,29.0,28.2,00.0,38.0,30.8,05.8,0000.0,0003.91,0001.38,0000.85
2021-11-27 06:22:00,,0826.2,5.00,0.00,29.0,28.2,00.0,38.0,30.8,05.8,0000.0,0004.21,0001.42,0000.86
2021-11-27 06:23:00,,0826.2,4.98,0.00,29.0,28.2,00.0,38.0,30.8,05.8,0000.0,0004.32,0001.46,0000.88
2021-11-27 06:24:00,,0826.2,5.01,0.00,29.0,28.2,00.0,38.0,30.8,05.8,0000.0,0004.28,0001.44,0000.88
2021-11-27 06:25:00,,0826.2,4.98,0.00,29.0,28.2,00.0,38.0,30.8,05.9,0000.0,0004.16,0001.39,0000.87
2021-11-27 06:26:00,,0826.2,5.00,0.00,29.1,28.2,00.0,38.0,30.8,05.9,0000.0,0004.08,0001.36,0000.86
2021-11-27 06:27:00,,0826.2,5.01,0.00,29.1,28.3,00.0,38.0,30.9,05.8,0000.0,0005.08,0001.38,0000.86
2021-11-27 06:28:00,,0826.2,4.99,0.00,29.1,28.3,00.0,38.0,30.8,05.8,0000.0,0005.25,0001.39,0000.85
2021-11-27 06:29:00,,0826.2,5.00,0.00,29.1,28.3,00.0,38.0,30.8,05.8,0000.0,0005.09,0001.37,0000.85
2021-11-27 06:30:00,,0826.1,4.99,0.00,29.1,28.3,00.0,38.0,30.9,05.8,0000.0,0004.42,0001.32,0000.83
2021-11-27 06:31:00,,0826.0,5.02,0.00,29.1,28.3,00.0,38.0,30.8,05.9,0000.0,0004.45,0001.38,0000.83
2021-11-27 06:32:00,,0826.0,4.99,0.00,29.1,28.2,00.0,38.1,30.8,06.0,0000.0,0004.09,0001.40,0000.83
2021-11-27 06:33:00,,0826.0,5.01,0.00,29.1,28.2,00.0,38.1,30.8,06.0,0000.0,0004.71,0001.41,0000.82
2021-11-27 06:34:00,,0826.1,4.99,0.00,29.1,28.2,00.0,38.1,30.8,05.9,0000.0,0005.84,0001.43,0000.83
2021-11-27 06:35:00,,0826.1,5.01,0.00,29.1,28.2,00.0,38.0,30.8,05.9,0000.0,0007.54,0001.45,0000.82
2021-11-27 06:36:00,,0826.1,4.99,0.00,29.1,28.2,00.0,38.0,30.8,05.9,0000.0,0007.70,0001.49,0000.83
2021-11-27 06:37:00,,0826.1,5.01,0.00,29.1,28.2,00.0,38.1,30.8,06.0,0000.0,0007.79,0001.54,0000.83
2021-11-27 06:38:00,,0826.2,5.00,0.00,29.1,28.2,00.0,38.1,30.8,06.0,0000.0,0007.48,0001.56,0000.84
2021-11-27 06:39:00,,0826.1,4.99,0.00,29.1,28.2,00.0,38.1,30.8,06.1,0000.0,0007.09,0001.56,0000.84
2021-11-27 06:40:00,,0826.1,5.00,0.00,29.1,28.2,00.0,38.1,30.8,06.1,0000.0,0007.15,0001.55,0000.84
2021-11-27 06:41:00,,0826.1,5.02,0.00,29.1,28.2,00.0,38.1,30.8,06.1,0000.0,0007.80,0001.55,0000.83
2021-11-27 06:42:00,,0826.1,4.98,0.00,29.1,28.2,00.0,38.1,30.9,06.1,0000.0,0008.23,0001.49,0000.82
2021-11-27 06:43:00,,0826.1,5.01,0.00,29.1,28.2,00.0,38.1,30.9,06.2,0000.0,0008.39,0001.43,0000.81
2021-11-27 06:44:00,,0826.1,4.99,0.00,29.1,28.2,00.0,38.1,30.9,06.2,0000.0,0007.92,0001.38,0000.79
2021-11-27 06:45:00,,0826.0,5.02,0.00,29.1,28.3,00.0,38.1,30.9,06.2,0000.0,0007.07,0001.29,0000.77
2021-11-27 06:46:00,,0826.0,4.99,0.00,29.1,28.3,00.0,38.1,30.8,06.2,0000.0,0005.41,0001.32,0000.77
2021-11-27 06:47:00,,0826.0,5.01,0.00,29.1,28.3,00.0,38.1,30.8,06.2,0000.0,0005.20,0001.30,0000.76
2021-11-27 06:48:00,,0826.0,4.99,0.00,29.1,28.3,00.0,38.1,30.8,06.1,0000.0,0005.12,0001.27,0000.75
2021-11-27 06:49:00,,0826.0,5.00,0.00,29.1,28.3,00.0,38.1,30.9,06.2,0000.0,0005.04,0001.23,0000.74
2021-11-27 06:50:00,,0826.0,4.99,0.00,29.1,28.3,00.0,38.1,30.8,06.3,0000.0,0004.99,0001.20,0000.72
2021-11-27 06:51:00,,0826.0,5.00,0.00,29.1,28.3,00.0,38.1,30.9,06.3,0000.0,0004.94,0001.18,0000.71
2021-11-27 06:52:00,,0826.0,4.99,0.00,29.1,28.3,00.0,38.1,30.8,06.3,0000.0,0003.98,0001.20,0000.70
2021-11-27 06:53:00,,0826.0,5.01,0.00,29.1,28.2,00.0,38.1,30.8,06.3,0000.0,0003.16,0001.16,0000.70
2021-11-27 06:54:00,,0826.0,5.00,0.00,29.1,28.3,00.0,38.1,30.8,06.3,0000.0,0002.44,0001.18,0000.71
2021-11-27 06:55:00,,0826.0,5.00,0.00,29.1,28.2,00.0,38.1,30.7,06.3,0000.0,0002.31,0001.19,0000.71
2021-11-27 06:56:00,,0825.9,5.00,0.00,29.1,28.2,00.0,38.1,30.8,06.3,0000.0,0002.21,0001.21,0000.71
2021-11-27 06:57:00,,0825.9,5.01,0.00,29.1,28.2,00.0,38.1,30.8,06.4,0000.0,0002.16,0001.18,0000.70
2021-11-27 06:58:00,,0826.0,4.99,0.00,29.1,28.2,00.0,38.1,30.7,06.4,0000.0,0002.01,0001.14,0000.69
2021-11-27 06:59:00,,0826.0,5.02,0.00,29.1,28.1,00.0,38.1,30.7,06.4,0000.0,0001.95,0001.13,0000.68
